Flag for Germany Weather past 2 weeks in Radolfzell am Bodensee, Baden-Württemberg, Germany

Now
59 °F

Passing clouds.


Feels Like: 59 °F
Forecast: 36 / 45 °F
Wind: 3 mph from West

Location: Konstanz

Current Time: Oct 21, 2014 at 2:57:18 AM

Latest Report: Oct 21, 2014 at 2:00 AM


Visibility: 44 mi

Pressure: 30.01 "Hg

Humidity: 91%

Dew point: 56 °F

Location of Radolfzell am BodenseeLocation

Historic Weather in Radolfzell am Bodensee — Graph

°F

Radolfzell am Bodensee temperature yesterday

Maximum temperature yesterday: 72 °F (at 3:00 PM)
Minimum temperature yesterday: 54 °F (at 8:00 AM)
Average temperature yesterday: 62 °F

Past Weeks' High & Low Weather Summary

 TemperatureHumidityPressure
High76 °F (Oct 9, 5:00 PM)100% (Oct 9, 2:00 AM)30.27 "Hg (Oct 9, 2:00 AM)
Low50 °F (Oct 14, 8:00 AM)49% (Oct 9, 3:00 PM)29.75 "Hg (Oct 12, 5:00 PM)
Average59 °F87%29.94 "Hg
* Reported Oct 6 1:00 AM — Oct 21 1:00 AM, Radolfzell am Bodensee, Weather by CustomWeather, © 2014

Note: Actual official high and low records may vary slightly from our data, if they occured in-between our weather recording intervals... More about our weather records

Advertising

Radolfzell am Bodensee weather history for previous 24 hours

 ConditionsComfort  
Time TempWeatherWind HumidityBarometerVisibility
1:00 AM
Oct 21
59 °FPassing clouds.5 mph92%30.01 "Hg37 mi
12:00 AM60 °FLight rain. Light fog.5 mph94%30.02 "Hg6 mi
11:00 PM
Oct 20
61 °FLight rain. Passing clouds.5 mph93%30.04 "Hg4 mi
10:00 PM62 °FRain. Passing clouds.1 mph96%30.01 "Hg4 mi
9:00 PM64 °FLight rain. Overcast.2 mph81%30.03 "Hg7 mi
8:00 PM65 °FOvercast.1 mph80%30.01 "Hg12 mi
7:00 PM66 °FOvercast.2 mph73%30.02 "Hg19 mi
6:00 PM68 °FOvercast.2 mph70%30.01 "Hg22 mi
5:00 PM70 °FOvercast.5 mph64%30.02 "Hg19 mi
4:00 PM72 °FOvercast.6 mph62%30.03 "Hg16 mi
3:00 PM72 °FPartly sunny.6 mph60%30.05 "Hg16 mi
2:00 PM70 °FOvercast.5 mph62%30.08 "Hg19 mi
1:00 PM66 °FPartly sunny.1 mph70%30.12 "Hg19 mi
12:00 PM62 °FPartly sunny.2 mph81%30.15 "Hg19 mi
11:00 AM60 °FPartly sunny.1 mph85%30.16 "Hg19 mi
10:00 AM59 °FPartly sunny.No wind87%30.16 "Hg16 mi
9:00 AM55 °FPartly sunny.1 mph96%30.17 "Hg14 mi
8:00 AM54 °FPartly sunny.2 mph98%30.17 "Hg16 mi
7:00 AM55 °FPassing clouds.No wind93%30.17 "Hg16 mi
5:00 AM55 °FClear.1 mph96%30.19 "Hg17 mi
4:00 AM55 °FFog.No wind99%30.20 "Hg3 mi
3:00 AM56 °FClear.No wind97%30.21 "Hg7 mi
2:00 AM56 °FFog.No wind96%30.21 "Hg3 mi
Weather by CustomWeather, © 2014

See weather overviewHow to use our weather pages